Location: La Brionne
(46.1728°N, 1.7849°E)
Time: 18:07:24
(UTC+00:00)

Cosmos 1544 Rocket - Pass Details

Date: 31 October 2021
Orbit: 603 x 632 km, 82.5° (Epoch: 27 November)

Event Time Altitude Azimuth Distance (km) Brightness Sun altitude
Exits shadow 05:12:42 23° 275° (W) 1,296 4.6 -14.3°
Maximum altitude 05:12:49 23° 272° (W) 1,295 4.6 -14.2°
Drops below altitude 10° 05:16:15 10° 220° (SW) 1,955 5.8 -13.6°
Sets 05:18:46 0° 206° (SSW) 2,849 6.8 -13.2°
